| time (UTC) | temp F | wind direction | speed knots | gust knots | rain 1hr in | rain 24hr in | rain mn in | humidity % | barometer mb |
| 20260505093002 | 54 | 91 | 0.0 | 0.0 | 0.00 | 0.00 | 0.00 | 77 | 1017.4 |
| 20260505091559 | 55 | 91 | 0.0 | 0.0 | 0.00 | 0.00 | 0.00 | 77 | 1017.4 |
| 20260505090056 | 56 | 91 | 0.0 | 0.9 | 0.00 | 0.00 | 0.00 | 75 | 1017.4 |
| 20260505084559 | 57 | 110 | 0.0 | 0.9 | 0.00 | 0.00 | 0.00 | 74 | 1017.2 |
| 20260505083056 | 58 | 120 | 0.0 | 0.9 | 0.00 | 0.00 | 0.00 | 73 | 1017.3 |
| 20260505081542 | 59 | 145 | 0.0 | 2.6 | 0.00 | 0.00 | 0.00 | 72 | 1017.3 |
| 20260505080040 | 59 | 124 | 0.0 | 5.2 | 0.00 | 0.00 | 0.00 | 72 | 1017.1 |
| 20260505074537 | 60 | 151 | 0.0 | 3.5 | 0.00 | 0.00 | 0.00 | 71 | 1016.9 |
| 20260505073035 | 60 | 134 | 0.0 | 2.6 | 0.00 | 0.00 | 0.00 | 70 | 1016.9 |
| 20260505071534 | 60 | 124 | 0.9 | 3.5 | 0.00 | 0.00 | 0.00 | 70 | 1016.9 |
| 20260505070034 | 61 | 135 | 0.9 | 4.3 | 0.00 | 0.00 | 0.00 | 70 | 1016.8 |
| 20260505064539 | 61 | 121 | 0.9 | 3.5 | 0.00 | 0.00 | 0.00 | 70 | 1016.8 |
| 20260505063031 | 61 | 116 | 0.0 | 5.2 | 0.00 | 0.00 | 0.00 | 69 | 1016.8 |
| 20260505061529 | 61 | 123 | 0.0 | 4.3 | 0.00 | 0.00 | 0.00 | 68 | 1016.9 |
| 20260505060026 | 62 | 120 | 0.0 | 7.0 | 0.00 | 0.00 | 0.00 | 67 | 1016.9 |
| 20260505054542 | 63 | 105 | 0.0 | 4.3 | 0.00 | 0.00 | 0.00 | 66 | 1016.9 |
| 20260505053024 | 63 | 130 | 0.9 | 5.2 | 0.00 | 0.00 | 0.00 | 66 | 1016.9 |
| 20260505051520 | 63 | 119 | 1.7 | 6.1 | 0.00 | 0.00 | 0.00 | 65 | 1017.0 |
| 20260505041513 | 65 | 123 | 1.7 | 6.1 | 0.00 | 0.00 | 0.00 | 63 | 1016.8 |
| 20260505040011 | 66 | 90 | 0.9 | 7.0 | 0.00 | 0.00 | 0.00 | 62 | 1016.7 |
| 20260505034509 | 66 | 128 | 2.6 | 6.1 | 0.00 | 0.00 | 0.00 | 61 | 1016.8 |
| 20260505033011 | 66 | 135 | 0.9 | 7.0 | 0.00 | 0.00 | 0.00 | 60 | 1016.7 |
| 20260505031508 | 67 | 116 | 1.7 | 7.0 | 0.00 | 0.00 | 0.00 | 59 | 1016.7 |
| 20260505030024 | 67 | 135 | 1.7 | 7.8 | 0.00 | 0.00 | 0.00 | 56 | 1016.8 |
| 20260505024509 | 68 | 116 | 1.7 | 5.2 | 0.00 | 0.00 | 0.00 | 52 | 1016.7 |
| 20260505023006 | 68 | 124 | 0.0 | 7.0 | 0.00 | 0.00 | 0.00 | 48 | 1016.7 |
| 20260505021506 | 68 | 131 | 0.0 | 3.5 | 0.00 | 0.00 | 0.00 | 46 | 1016.4 |
| 20260505020005 | 68 | 121 | 1.7 | 4.3 | 0.00 | 0.00 | 0.00 | 46 | 1016.3 |
| 20260505014508 | 68 | 172 | 0.0 | 4.3 | 0.00 | 0.00 | 0.00 | 46 | 1016.1 |
| 20260505013007 | 68 | 125 | 0.0 | 3.5 | 0.00 | 0.00 | 0.00 | 46 | 1015.9 |
| 20260505011504 | 68 | 129 | 0.0 | 0.9 | 0.00 | 0.00 | 0.00 | 44 | 1015.9 |
| 20260505010002 | 69 | 119 | 0.0 | 0.9 | 0.00 | 0.00 | 0.00 | 43 | 1015.7 |
| 20260505004504 | 69 | 114 | 0.0 | 1.7 | 0.00 | 0.00 | 0.00 | 42 | 1015.5 |
| 20260505003102 | 69 | 130 | 0.0 | 2.6 | 0.00 | 0.00 | 0.00 | 42 | 1015.4 |
| 20260505001600 | 71 | 125 | 0.0 | 0.0 | 0.00 | 0.00 | 0.00 | 40 | 1015.3 |
| 20260505000113 | 73 | 125 | 0.0 | 0.0 | 0.00 | 0.00 | 0.00 | 37 | 1015.1 |
| 20260504234558 | 75 | 125 | 0.0 | 2.6 | 0.00 | 0.00 | 0.00 | 35 | 1015.0 |
| 20260504233109 | 76 | 121 | 0.0 | 3.5 | 0.00 | 0.00 | 0.00 | 35 | 1014.9 |
| 20260504231625 | 76 | 120 | 0.9 | 7.0 | 0.00 | 0.00 | 0.00 | 34 | 1014.8 |
| 20260504230058 | 77 | 136 | 1.7 | 5.2 | 0.00 | 0.00 | 0.00 | 34 | 1014.8 |
| 20260504224606 | 78 | 153 | 0.0 | 6.1 | 0.00 | 0.00 | 0.00 | 33 | 1014.8 |
| 20260504223056 | 79 | 93 | 1.7 | 8.7 | 0.00 | 0.00 | 0.00 | 32 | 1014.8 |
| 20260504221644 | 79 | 128 | 1.7 | 6.1 | 0.00 | 0.00 | 0.00 | 31 | 1014.9 |
| 20260504220055 | 80 | 124 | 0.9 | 9.6 | 0.00 | 0.00 | 0.00 | 30 | 1014.8 |
| 20260504214554 | 81 | 134 | 1.7 | 4.3 | 0.00 | 0.00 | 0.00 | 31 | 1015.0 |
| 20260504213100 | 80 | 134 | 1.7 | 7.8 | 0.00 | 0.00 | 0.00 | 30 | 1015.1 |
| 20260504211554 | 80 | 139 | 0.9 | 7.8 | 0.00 | 0.00 | 0.00 | 31 | 1015.0 |
| 20260504210053 | 80 | 129 | 1.7 | 7.0 | 0.00 | 0.00 | 0.00 | 31 | 1015.0 |
| 20260504204552 | 79 | 176 | 0.9 | 8.7 | 0.00 | 0.00 | 0.00 | 31 | 1015.1 |
| 20260504203050 | 80 | 134 | 4.3 | 11.3 | 0.00 | 0.00 | 0.00 | 30 | 1015.2 |
| 20260504201547 | 80 | 129 | 0.9 | 9.6 | 0.00 | 0.00 | 0.00 | 31 | 1015.4 |
| 20260504200047 | 80 | 107 | 2.6 | 7.0 | 0.00 | 0.00 | 0.00 | 29 | 1015.4 |
| 20260504194551 | 80 | 128 | 0.9 | 9.6 | 0.00 | 0.00 | 0.00 | 30 | 1015.6 |
| 20260504193047 | 79 | 127 | 1.7 | 7.8 | 0.00 | 0.00 | 0.00 | 30 | 1015.8 |
| 20260504191605 | 79 | 132 | 1.7 | 6.1 | 0.00 | 0.00 | 0.00 | 34 | 1016.2 |
| 20260504190041 | 78 | 124 | 2.6 | 9.6 | 0.00 | 0.00 | 0.00 | 32 | 1016.2 |
| 20260504184544 | 80 | 106 | 1.7 | 7.0 | 0.00 | 0.00 | 0.00 | 35 | 1016.3 |
| 20260504183035 | 79 | 117 | 1.7 | 8.7 | 0.00 | 0.00 | 0.00 | 30 | 1016.6 |
| 20260504181534 | 79 | 128 | 1.7 | 7.0 | 0.00 | 0.00 | 0.00 | 29 | 1016.6 |
| 20260504180034 | 78 | 121 | 0.0 | 6.1 | 0.00 | 0.00 | 0.00 | 33 | 1016.7 |
| 20260504174527 | 78 | 122 | 0.9 | 7.0 | 0.00 | 0.00 | 0.00 | 33 | 1016.9 |
| 20260504173026 | 77 | 122 | 1.7 | 7.0 | 0.00 | 0.00 | 0.00 | 35 | 1017.1 |
| 20260504171524 | 77 | 126 | 0.0 | 7.0 | 0.00 | 0.00 | 0.00 | 35 | 1017.3 |
| 20260504100104 | 38 | 124 | 0.0 | 0.0 | 0.00 | 0.00 | 0.00 | 52 | 1019.2 |